OAL017 LGTS-LOWW

Flight info

Callsign OAL017
Flight time 1h 41m
Altitude 36000
Route FSK UN128 RUGAS DCT RAXAD DCT PARAK DCT NATEX
Aircraft A321/M-SDE3FGHIRWY/LB1

Departure

Time 2026-05-05 21:44
Airport Thessaloniki Macedonia International Airport (LGTS)

Arrival

Time 2026-05-05 23:26
Airport Vienna International Airport (LOWW)
Time Latitude Longitude Altitude Speed Heading
2026-05-05 21:36 40.52502 22.97334 29 ft 0 kts 41°
2026-05-05 21:39 40.52485 22.97315 21 ft 4 kts 41°
2026-05-05 21:39 40.52464 22.97290 29 ft 4 kts 41°
2026-05-05 21:39 40.52442 22.97267 29 ft 4 kts
2026-05-05 21:39 40.52435 22.97265 29 ft 1 kts 342°
2026-05-05 21:40 40.52450 22.97258 29 ft 3 kts 342°
2026-05-05 21:40 40.52467 22.97251 29 ft 5 kts 342°
2026-05-05 21:40 40.52519 22.97228 29 ft 7 kts 342°
2026-05-05 21:40 40.52572 22.97204 29 ft 9 kts 335°
2026-05-05 21:41 40.52613 22.97179 29 ft 10 kts 335°
2026-05-05 21:41 40.52672 22.97117 29 ft 12 kts 319°
2026-05-05 21:41 40.52731 22.97053 29 ft 11 kts 329°
2026-05-05 21:41 40.52811 22.97024 29 ft 13 kts 345°
2026-05-05 21:42 40.52904 22.96990 29 ft 15 kts 345°
2026-05-05 21:42 40.53008 22.96952 29 ft 16 kts 345°
2026-05-05 21:42 40.53055 22.96865 29 ft 0 kts 248°
2026-05-05 21:43 40.53051 22.96852 29 ft 4 kts 248°
2026-05-05 21:43 40.53026 22.96805 28 ft 9 kts 215°
2026-05-05 21:43 40.52956 22.96789 29 ft 12 kts 166°
2026-05-05 21:44 40.52752 22.96853 33 ft 72 kts 167°
2026-05-05 21:44 40.51960 22.97092 28 ft 157 kts 169°
2026-05-05 21:44 40.50702 22.97395 406 ft 197 kts 171°
2026-05-05 21:44 40.49331 22.97736 1379 ft 205 kts 170°
2026-05-05 21:45 40.47854 22.98073 2197 ft 224 kts 173°
2026-05-05 21:45 40.46243 22.98370 3005 ft 247 kts 174°
2026-05-05 21:45 40.44460 22.98761 3840 ft 269 kts 168°
2026-05-05 21:45 40.42611 22.99348 4651 ft 276 kts 166°
2026-05-05 21:46 40.40744 22.99991 5523 ft 279 kts 165°
2026-05-05 21:46 40.38853 23.00631 6402 ft 282 kts 165°
2026-05-05 21:46 40.36942 23.01246 7244 ft 285 kts 166°
2026-05-05 21:46 40.35003 23.01842 8087 ft 288 kts 164°
2026-05-05 21:47 40.33212 23.02965 8897 ft 288 kts 136°
2026-05-05 21:47 40.32136 23.05131 9711 ft 286 kts 103°
2026-05-05 21:47 40.32116 23.07697 10476 ft 285 kts 71°
2026-05-05 21:47 40.33149 23.09861 11212 ft 284 kts 39°
2026-05-05 21:48 40.34918 23.10954 11977 ft 286 kts
2026-05-05 21:48 40.36902 23.10652 12634 ft 298 kts 342°
2026-05-05 21:48 40.38912 23.09625 12851 ft 321 kts 340°
2026-05-05 21:48 40.41061 23.08509 13102 ft 341 kts 340°
2026-05-05 21:49 40.43288 23.07351 13717 ft 347 kts 340°
2026-05-05 21:49 40.45546 23.06176 14395 ft 351 kts 340°
2026-05-05 21:49 40.47826 23.04989 15095 ft 353 kts 340°
2026-05-05 21:49 40.50118 23.03796 15807 ft 356 kts 340°
2026-05-05 21:50 40.52430 23.02593 16509 ft 358 kts 339°
2026-05-05 21:50 40.54764 23.01415 17200 ft 361 kts 343°
2026-05-05 21:50 40.57246 23.00928 17858 ft 363 kts 358°
2026-05-05 21:50 40.59777 23.00837 18522 ft 366 kts 358°
2026-05-05 21:51 40.62331 23.00756 19111 ft 368 kts 358°
2026-05-05 21:51 40.64896 23.00680 19723 ft 370 kts 358°
2026-05-05 21:51 40.67478 23.00602 20357 ft 372 kts 358°
2026-05-05 21:51 40.70076 23.00517 20988 ft 374 kts 357°
2026-05-05 21:52 40.75313 23.00339 22210 ft 379 kts 357°
2026-05-05 21:52 40.77951 23.00249 22786 ft 381 kts 356°
2026-05-05 21:52 40.80607 23.00157 23350 ft 383 kts 356°
2026-05-05 21:53 40.83281 23.00066 23854 ft 385 kts 356°
2026-05-05 21:53 40.85966 22.99973 24311 ft 387 kts 356°
2026-05-05 21:53 40.88665 22.99879 24761 ft 389 kts 356°
2026-05-05 21:53 40.91379 22.99783 25196 ft 391 kts 356°
2026-05-05 21:54 40.94113 22.99684 25623 ft 394 kts 356°
2026-05-05 21:54 40.96856 22.99589 26072 ft 396 kts 356°
2026-05-05 21:54 40.99614 22.99496 26502 ft 398 kts 356°
2026-05-05 21:54 41.02355 22.99403 26918 ft 400 kts 356°
2026-05-05 21:55 41.05150 22.99308 27336 ft 403 kts 356°
2026-05-05 21:55 41.07940 22.98955 27732 ft 403 kts 348°
2026-05-05 21:55 41.10644 22.97953 28112 ft 405 kts 338°
2026-05-05 21:55 41.13174 22.96309 28490 ft 407 kts 329°
2026-05-05 21:56 41.15548 22.94249 28863 ft 409 kts 327°
2026-05-05 21:56 41.17934 22.92169 29242 ft 411 kts 327°
2026-05-05 21:56 41.20338 22.90083 29627 ft 414 kts 327°
2026-05-05 21:56 41.22755 22.87987 30011 ft 416 kts 327°
2026-05-05 21:57 41.25187 22.85881 30354 ft 418 kts 327°
2026-05-05 21:57 41.27628 22.83768 30703 ft 419 kts 327°
2026-05-05 21:57 41.30067 22.81654 31145 ft 418 kts 327°
2026-05-05 21:57 41.32513 22.79578 31577 ft 416 kts 330°
2026-05-05 21:58 41.35126 22.77931 31949 ft 416 kts 337°
2026-05-05 21:58 41.37803 22.76472 32394 ft 415 kts 336°
2026-05-05 21:58 41.40469 22.75007 32849 ft 414 kts 336°
2026-05-05 21:58 41.43122 22.73541 33289 ft 412 kts 336°
2026-05-05 21:59 41.45766 22.72073 33730 ft 411 kts 336°
2026-05-05 21:59 41.48403 22.70606 34153 ft 410 kts 336°
2026-05-05 21:59 41.51031 22.69142 34520 ft 409 kts 336°
2026-05-05 21:59 41.53658 22.67680 34888 ft 408 kts 336°
2026-05-05 22:00 41.56278 22.66225 35214 ft 408 kts 336°
2026-05-05 22:00 41.58901 22.64773 35559 ft 408 kts 336°
2026-05-05 22:00 41.61524 22.63319 35919 ft 408 kts 336°
2026-05-05 22:00 41.64144 22.61864 36059 ft 407 kts 336°
2026-05-05 22:01 41.66753 22.60411 36089 ft 405 kts 336°
2026-05-05 22:01 41.71939 22.57511 36089 ft 403 kts 336°
2026-05-05 22:02 41.77112 22.54617 36095 ft 404 kts 336°
2026-05-05 22:02 41.82269 22.51737 36088 ft 404 kts 336°
2026-05-05 22:03 41.87460 22.48826 36094 ft 404 kts 336°
2026-05-05 22:03 41.92643 22.45907 36094 ft 405 kts 336°
2026-05-05 22:04 41.97844 22.42971 36107 ft 405 kts 335°
2026-05-05 22:04 42.03046 22.40033 36107 ft 405 kts 335°
2026-05-05 22:05 42.08250 22.37093 36107 ft 405 kts 336°
2026-05-05 22:05 42.13451 22.34152 36106 ft 406 kts 335°
2026-05-05 22:06 42.18652 22.31201 36112 ft 406 kts 335°
2026-05-05 22:06 42.23852 22.28250 36112 ft 406 kts 336°
2026-05-05 22:07 42.29062 22.25293 36104 ft 406 kts 336°
2026-05-05 22:07 42.34293 22.22380 36109 ft 407 kts 337°
2026-05-05 22:08 42.39592 22.19655 36104 ft 408 kts 338°
2026-05-05 22:08 42.44900 22.16957 36106 ft 408 kts 338°
2026-05-05 22:09 42.50208 22.14205 36089 ft 408 kts 337°
2026-05-05 22:09 42.55506 22.11418 36095 ft 408 kts 337°
2026-05-05 22:10 42.60771 22.08647 36097 ft 409 kts 337°
2026-05-05 22:10 42.66069 22.05861 36094 ft 409 kts 337°
2026-05-05 22:11 42.71372 22.03068 36089 ft 409 kts 337°
2026-05-05 22:11 42.76672 22.00269 36092 ft 409 kts 337°
2026-05-05 22:12 42.81972 21.97468 36091 ft 409 kts 337°
2026-05-05 22:12 42.87279 21.94658 36089 ft 409 kts 337°
2026-05-05 22:13 42.92582 21.91846 36092 ft 409 kts 337°
2026-05-05 22:13 42.97894 21.89026 36087 ft 410 kts 337°
2026-05-05 22:14 43.03202 21.86207 36069 ft 410 kts 337°
2026-05-05 22:14 43.08521 21.83365 36077 ft 411 kts 337°
2026-05-05 22:15 43.13850 21.80516 36073 ft 411 kts 337°
2026-05-05 22:15 43.19187 21.77662 36072 ft 412 kts 337°
2026-05-05 22:16 43.24524 21.74804 36070 ft 412 kts 337°
2026-05-05 22:16 43.29865 21.71939 36079 ft 412 kts 337°
2026-05-05 22:17 43.35171 21.69081 36075 ft 413 kts 337°
2026-05-05 22:17 43.40516 21.66196 36067 ft 413 kts 337°
2026-05-05 22:18 43.45868 21.63303 36078 ft 413 kts 337°
2026-05-05 22:18 43.51221 21.60404 36071 ft 414 kts 337°
2026-05-05 22:19 43.56577 21.57501 36057 ft 414 kts 337°
2026-05-05 22:19 43.61940 21.54585 36062 ft 414 kts 337°
2026-05-05 22:20 43.67307 21.51663 36062 ft 415 kts 337°
2026-05-05 22:20 43.72679 21.48731 36073 ft 415 kts 337°
2026-05-05 22:21 43.78056 21.45785 36068 ft 416 kts 337°
2026-05-05 22:21 43.83438 21.42833 36060 ft 416 kts 337°
2026-05-05 22:22 43.88821 21.39884 36051 ft 416 kts 337°
2026-05-05 22:22 43.94214 21.36929 36068 ft 417 kts 337°
2026-05-05 22:23 43.99602 21.33957 36059 ft 417 kts 337°
2026-05-05 22:23 44.05003 21.30975 36060 ft 418 kts 337°
2026-05-05 22:24 44.10412 21.27993 36060 ft 418 kts 337°
2026-05-05 22:24 44.15813 21.24992 36058 ft 418 kts 336°
2026-05-05 22:25 44.21217 21.21983 36054 ft 419 kts 336°
2026-05-05 22:25 44.26633 21.18971 36049 ft 419 kts 336°
2026-05-05 22:26 44.32053 21.15951 36053 ft 419 kts 336°
2026-05-05 22:26 44.37472 21.12923 36047 ft 420 kts 336°
2026-05-05 22:27 44.41982 21.10399 36047 ft 420 kts 337°
2026-05-05 22:27 44.47413 21.07351 36044 ft 421 kts 336°
2026-05-05 22:28 44.52846 21.04293 36035 ft 421 kts 336°
2026-05-05 22:28 44.59170 21.00738 36044 ft 421 kts 336°
2026-05-05 22:29 44.63730 20.98170 36045 ft 422 kts 336°
2026-05-05 22:29 44.69180 20.95093 36043 ft 422 kts 336°
2026-05-05 22:30 44.74635 20.92008 36039 ft 423 kts 336°
2026-05-05 22:30 44.80085 20.88909 36033 ft 423 kts 336°
2026-05-05 22:31 44.85545 20.85802 36031 ft 423 kts 336°
2026-05-05 22:31 44.91013 20.82696 36029 ft 424 kts 336°
2026-05-05 22:32 44.96443 20.79594 36032 ft 424 kts 336°
2026-05-05 22:32 45.01903 20.76464 36034 ft 424 kts 336°
2026-05-05 22:33 45.07369 20.73326 36035 ft 424 kts 336°
2026-05-05 22:33 45.12835 20.70187 36024 ft 424 kts 336°
2026-05-05 22:34 45.18310 20.67028 36018 ft 425 kts 336°
2026-05-05 22:34 45.23791 20.63866 36020 ft 425 kts 336°
2026-05-05 22:35 45.29277 20.60707 36029 ft 426 kts 336°
2026-05-05 22:35 45.34760 20.57524 36027 ft 426 kts 336°
2026-05-05 22:36 45.40253 20.54333 36015 ft 427 kts 336°
2026-05-05 22:36 45.45752 20.51125 36014 ft 427 kts 336°
2026-05-05 22:37 45.51261 20.47921 36011 ft 428 kts 336°
2026-05-05 22:37 45.56772 20.44712 36015 ft 428 kts 336°
2026-05-05 22:38 45.62280 20.41486 36010 ft 428 kts 336°
2026-05-05 22:38 45.67794 20.38242 36010 ft 428 kts 336°
2026-05-05 22:39 45.73315 20.34986 36002 ft 429 kts 336°
2026-05-05 22:39 45.78847 20.31725 36005 ft 430 kts 336°
2026-05-05 22:40 45.84354 20.28480 36006 ft 431 kts 336°
2026-05-05 22:40 45.89902 20.25201 36008 ft 431 kts 336°
2026-05-05 22:41 45.95448 20.21906 36010 ft 431 kts 336°
2026-05-05 22:41 46.01000 20.18608 36020 ft 432 kts 336°
2026-05-05 22:42 46.06559 20.15302 36013 ft 433 kts 336°
2026-05-05 22:42 46.12132 20.11976 36011 ft 433 kts 335°
2026-05-05 22:43 46.17296 20.07643 36008 ft 429 kts 319°
2026-05-05 22:43 46.21458 20.01495 36009 ft 428 kts 311°
2026-05-05 22:44 46.25491 19.95151 36019 ft 429 kts 311°
2026-05-05 22:44 46.29532 19.88805 36010 ft 429 kts 311°
2026-05-05 22:45 46.33569 19.82452 36009 ft 429 kts 311°
2026-05-05 22:45 46.37607 19.76081 36010 ft 429 kts 311°
2026-05-05 22:46 46.41644 19.69698 36012 ft 429 kts 311°
2026-05-05 22:46 46.45667 19.63300 36007 ft 429 kts 311°
2026-05-05 22:47 46.49671 19.56918 36003 ft 430 kts 311°
2026-05-05 22:47 46.53697 19.50490 35997 ft 430 kts 311°
2026-05-05 22:48 46.57734 19.44038 36006 ft 431 kts 311°
2026-05-05 22:48 46.61763 19.37590 36006 ft 431 kts 311°
2026-05-05 22:49 46.65790 19.31129 35999 ft 431 kts 311°
2026-05-05 22:49 46.69818 19.24644 35997 ft 432 kts 310°
2026-05-05 22:50 46.73847 19.18137 36001 ft 432 kts 310°
2026-05-05 22:50 46.77869 19.11616 36004 ft 433 kts 310°
2026-05-05 22:51 46.81898 19.05079 36006 ft 433 kts 310°
2026-05-05 22:51 46.85928 18.98543 36009 ft 433 kts 310°
2026-05-05 22:52 46.89927 18.92028 36006 ft 433 kts 310°
2026-05-05 22:52 46.93945 18.85466 36004 ft 433 kts 310°
2026-05-05 22:53 46.97957 18.78889 36000 ft 433 kts 310°
2026-05-05 22:53 47.01972 18.72300 36007 ft 433 kts 310°
2026-05-05 22:54 47.05993 18.65684 35973 ft 435 kts 309°
2026-05-05 22:54 47.07993 18.62390 35016 ft 432 kts 309°
2026-05-05 22:54 47.10013 18.59050 33114 ft 443 kts 309°
2026-05-05 22:54 47.12081 18.55619 31405 ft 455 kts 309°
2026-05-05 22:55 47.14174 18.52140 30874 ft 451 kts 309°
2026-05-05 22:55 47.16233 18.48722 30497 ft 443 kts 309°
2026-05-05 22:55 47.18273 18.45344 29898 ft 441 kts 309°
2026-05-05 22:55 47.20305 18.41981 29286 ft 437 kts 308°
2026-05-05 22:56 47.22315 18.38651 28743 ft 433 kts 308°
2026-05-05 22:56 47.24302 18.35351 28174 ft 429 kts 309°
2026-05-05 22:56 47.26270 18.32075 27604 ft 425 kts 309°
2026-05-05 22:56 47.28215 18.28824 27055 ft 421 kts 309°
2026-05-05 22:57 47.30141 18.25600 26509 ft 417 kts 309°
2026-05-05 22:57 47.32047 18.22404 25970 ft 413 kts 308°
2026-05-05 22:57 47.33938 18.19228 25438 ft 410 kts 309°
2026-05-05 22:57 47.35810 18.16079 24912 ft 407 kts 309°
2026-05-05 22:58 47.37647 18.12985 24417 ft 404 kts 309°
2026-05-05 22:58 47.39492 18.09877 23904 ft 401 kts 308°
2026-05-05 22:58 47.41324 18.06796 23393 ft 398 kts 308°
2026-05-05 22:58 47.43141 18.03743 22872 ft 393 kts 307°
2026-05-05 22:59 47.44936 18.00724 22425 ft 389 kts 307°
2026-05-05 22:59 47.46711 17.97732 21972 ft 385 kts 307°
2026-05-05 22:59 47.48465 17.94773 21527 ft 381 kts 307°
2026-05-05 22:59 47.50199 17.91843 21060 ft 376 kts 308°
2026-05-05 23:00 47.53607 17.86061 20166 ft 369 kts 308°
2026-05-05 23:00 47.55284 17.83213 19716 ft 365 kts 308°
2026-05-05 23:00 47.56947 17.80387 19229 ft 363 kts 307°
2026-05-05 23:01 47.58596 17.77585 18773 ft 359 kts 307°
2026-05-05 23:01 47.60230 17.74804 18293 ft 357 kts 307°
2026-05-05 23:01 47.61855 17.72027 17778 ft 354 kts 307°
2026-05-05 23:01 47.63459 17.69281 17292 ft 350 kts 306°
2026-05-05 23:02 47.65024 17.66601 16829 ft 347 kts 306°
2026-05-05 23:02 47.66618 17.63872 16339 ft 344 kts 307°
2026-05-05 23:02 47.68178 17.61199 15873 ft 342 kts 307°
2026-05-05 23:02 47.69730 17.58537 15400 ft 340 kts 306°
2026-05-05 23:03 47.71254 17.55917 14926 ft 339 kts 307°
2026-05-05 23:03 47.72710 17.53186 14462 ft 335 kts 298°
2026-05-05 23:03 47.73724 17.50121 14002 ft 328 kts 284°
2026-05-05 23:03 47.74223 17.46871 13744 ft 320 kts 271°
2026-05-05 23:04 47.74230 17.43485 13645 ft 331 kts 261°
2026-05-05 23:04 47.73983 17.40071 13484 ft 332 kts 261°
2026-05-05 23:04 47.73740 17.36658 13341 ft 332 kts 261°
2026-05-05 23:04 47.73503 17.33246 13199 ft 332 kts 261°
2026-05-05 23:05 47.73266 17.29830 13046 ft 331 kts 261°
2026-05-05 23:05 47.73028 17.26436 12904 ft 330 kts 261°
2026-05-05 23:05 47.72789 17.23057 12750 ft 328 kts 260°
2026-05-05 23:05 47.72547 17.19694 12611 ft 327 kts 261°
2026-05-05 23:06 47.72302 17.16334 12471 ft 327 kts 261°
2026-05-05 23:06 47.72057 17.12968 12327 ft 327 kts 261°
2026-05-05 23:06 47.72124 17.09587 12184 ft 332 kts 277°
2026-05-05 23:06 47.72905 17.06330 12038 ft 339 kts 295°
2026-05-05 23:07 47.74365 17.03557 11879 ft 345 kts 314°
2026-05-05 23:07 47.76371 17.01578 11735 ft 350 kts 328°
2026-05-05 23:07 47.78541 16.99947 11583 ft 348 kts 329°
2026-05-05 23:07 47.80672 16.98343 11435 ft 348 kts 329°
2026-05-05 23:08 47.82831 16.96712 11276 ft 348 kts 329°
2026-05-05 23:08 47.84990 16.95073 11129 ft 348 kts 329°
2026-05-05 23:08 47.87143 16.93433 10978 ft 348 kts 328°
2026-05-05 23:08 47.89295 16.91792 10843 ft 346 kts 328°
2026-05-05 23:09 47.91440 16.90157 10868 ft 347 kts 328°
2026-05-05 23:09 47.93585 16.88518 10871 ft 346 kts 329°
2026-05-05 23:09 47.95716 16.86888 10867 ft 340 kts 328°
2026-05-05 23:09 47.97767 16.85326 10856 ft 322 kts 328°
2026-05-05 23:10 47.99710 16.83845 10855 ft 308 kts 328°
2026-05-05 23:10 48.01610 16.82385 10857 ft 306 kts 328°
2026-05-05 23:10 48.03499 16.80925 10857 ft 306 kts 328°
2026-05-05 23:10 48.05388 16.79459 10857 ft 305 kts 328°
2026-05-05 23:11 48.07274 16.77998 10743 ft 306 kts 328°
2026-05-05 23:11 48.09178 16.76525 10316 ft 309 kts 329°
2026-05-05 23:11 48.11091 16.75050 9965 ft 309 kts 328°
2026-05-05 23:11 48.12982 16.73594 9832 ft 304 kts 328°
2026-05-05 23:12 48.14870 16.72143 9508 ft 306 kts 328°
2026-05-05 23:12 48.16773 16.70676 9036 ft 308 kts 328°
2026-05-05 23:12 48.18651 16.69224 8821 ft 296 kts 328°
2026-05-05 23:12 48.20492 16.67800 8753 ft 301 kts 328°
2026-05-05 23:13 48.22355 16.66448 8686 ft 302 kts 336°
2026-05-05 23:13 48.24355 16.65553 8522 ft 289 kts 340°
2026-05-05 23:13 48.26251 16.64772 8221 ft 277 kts 340°
2026-05-05 23:13 48.28103 16.63996 8096 ft 282 kts 340°
2026-05-05 23:14 48.29992 16.63199 7971 ft 282 kts 340°
2026-05-05 23:14 48.31876 16.62403 7606 ft 280 kts 341°
2026-05-05 23:14 48.33742 16.61615 7236 ft 277 kts 341°
2026-05-05 23:14 48.35598 16.60831 6871 ft 278 kts 340°
2026-05-05 23:15 48.37453 16.60048 6512 ft 277 kts 340°
2026-05-05 23:15 48.39303 16.59266 6144 ft 275 kts 340°
2026-05-05 23:15 48.41144 16.58485 5777 ft 274 kts 341°
2026-05-05 23:15 48.42385 16.57958 5517 ft 274 kts 342°
2026-05-05 23:16 48.44177 16.57039 5152 ft 269 kts 329°
2026-05-05 23:16 48.45552 16.55367 4984 ft 241 kts 303°
2026-05-05 23:16 48.46361 16.53232 4981 ft 232 kts 283°
2026-05-05 23:16 48.46614 16.50894 4995 ft 223 kts 262°
2026-05-05 23:17 48.46334 16.48655 4989 ft 216 kts 243°
2026-05-05 23:17 48.45601 16.46732 4993 ft 210 kts 225°
2026-05-05 23:17 48.44527 16.45294 4994 ft 206 kts 208°
2026-05-05 23:17 48.43229 16.44454 4996 ft 203 kts 192°
2026-05-05 23:18 48.41829 16.44263 4991 ft 203 kts 176°
2026-05-05 23:18 48.40470 16.44722 4989 ft 205 kts 160°
2026-05-05 23:18 48.39176 16.45642 4991 ft 206 kts 157°
2026-05-05 23:18 48.37893 16.46565 4996 ft 204 kts 157°
2026-05-05 23:19 48.36587 16.47364 4996 ft 201 kts 167°
2026-05-05 23:19 48.35235 16.47928 4999 ft 201 kts 166°
2026-05-05 23:19 48.33934 16.48480 4908 ft 190 kts 166°
2026-05-05 23:19 48.32673 16.49018 4706 ft 187 kts 167°
2026-05-05 23:20 48.31431 16.49548 4474 ft 184 kts 167°
2026-05-05 23:20 48.30205 16.50070 4232 ft 183 kts 167°
2026-05-05 23:20 48.29006 16.50583 4011 ft 171 kts 167°
2026-05-05 23:20 48.27929 16.51044 3770 ft 152 kts 168°
2026-05-05 23:21 48.26960 16.51457 3571 ft 140 kts 168°
2026-05-05 23:21 48.26035 16.51849 3400 ft 137 kts 167°
2026-05-05 23:21 48.25125 16.52236 3227 ft 136 kts 167°
2026-05-05 23:21 48.24219 16.52621 3054 ft 135 kts 167°
2026-05-05 23:22 48.23319 16.53003 2885 ft 134 kts 167°
2026-05-05 23:22 48.22447 16.53374 2707 ft 125 kts 167°
2026-05-05 23:22 48.21630 16.53722 2537 ft 120 kts 167°
2026-05-05 23:22 48.20827 16.54063 2387 ft 120 kts 167°
2026-05-05 23:23 48.20019 16.54405 2231 ft 121 kts 167°
2026-05-05 23:23 48.19222 16.54744 2076 ft 118 kts 166°
2026-05-05 23:23 48.18443 16.55075 1924 ft 114 kts 166°
2026-05-05 23:23 48.17685 16.55397 1774 ft 112 kts 166°
2026-05-05 23:24 48.16935 16.55715 1631 ft 112 kts 166°
2026-05-05 23:24 48.16188 16.56031 1479 ft 112 kts 166°
2026-05-05 23:24 48.15437 16.56350 1341 ft 114 kts 167°
2026-05-05 23:24 48.14660 16.56679 1190 ft 117 kts 166°
2026-05-05 23:25 48.13878 16.57010 1032 ft 119 kts 165°
2026-05-05 23:25 48.13064 16.57355 882 ft 122 kts 163°
2026-05-05 23:25 48.12253 16.57699 723 ft 122 kts 163°
2026-05-05 23:25 48.11455 16.58037 622 ft 112 kts 164°
2026-05-05 23:26 48.10888 16.58279 613 ft 41 kts 166°
2026-05-05 23:26 48.10777 16.58265 619 ft 6 kts 213°
2026-05-05 23:26 48.10779 16.58208 614 ft 6 kts 306°
2026-05-05 23:26 48.10814 16.58152 623 ft 9 kts 313°
2026-05-05 23:27 48.10863 16.58075 618 ft 11 kts 313°
2026-05-05 23:27 48.10925 16.57980 610 ft 14 kts 315°
2026-05-05 23:27 48.11000 16.57869 623 ft 16 kts 315°
2026-05-05 23:27 48.11064 16.57723 617 ft 18 kts 296°
2026-05-05 23:28 48.11145 16.57593 624 ft 18 kts 331°
2026-05-05 23:28 48.11233 16.57463 624 ft 19 kts 297°
2026-05-05 23:28 48.11295 16.57282 618 ft 20 kts 297°
2026-05-05 23:28 48.11363 16.57084 616 ft 22 kts 297°
2026-05-05 23:29 48.11436 16.56868 621 ft 24 kts 297°
2026-05-05 23:29 48.11576 16.56764 614 ft 24 kts 353°
2026-05-05 23:29 48.11684 16.56595 624 ft 24 kts 299°
2026-05-05 23:29 48.11760 16.56373 619 ft 20 kts 297°
2026-05-05 23:30 48.11810 16.56245 623 ft 0 kts 301°